SQ7FJB-10 Weather Reports


time (UTC)temp
F
wind
direction
speed
knots
gust
knots
rain 1hr
in
rain 24hr
in
rain mn
in
humidity
%
barometer
mb
20260508063406 47 258 2.6 2.6 0.00 0.00 0.00 87 1324.9
20260508060354 47 294 1.7 1.7 0.00 0.00 0.00 87 1324.8
20260508053341 47 277 0.9 0.9 0.00 0.00 0.00 88 1324.5
20260508050316 48 330 1.7 1.7 0.00 0.00 0.00 86 1324.6
20260508043250 47 162 0.9 0.9 0.00 0.00 0.00 86 1324.3
20260508040250 47 222 0.9 0.9 0.00 0.00 0.00 87 1324.1
20260508033225 47 264 1.7 1.7 0.00 0.00 0.00 87 1323.8
20260508030225 47 288 1.7 1.7 0.00 0.00 0.00 88 1323.7
20260508023213 47 204 0.0 0.0 0.00 0.00 0.00 89 1323.7
20260508020148 47 342 1.7 1.7 0.00 0.00 0.00 90 1323.5
20260508013135 47 192 0.9 0.9 0.00 0.00 0.00 91 1323.5
20260508010122 48 336 1.7 1.7 0.00 0.00 0.00 91 1323.6
20260508003122 49 258 0.9 0.9 0.00 0.00 0.00 88 1323.3
20260508000109 49 258 0.9 0.9 0.00 0.00 0.00 87 1323.3
20260507233057 50 222 1.7 1.7 0.00 0.00 0.00 86 1323.1
20260507230045 50 282 1.7 1.7 0.00 0.00 0.00 85 1323.2
20260507223032 50 342 0.9 0.9 0.00 0.02 0.00 85 1323.2
20260507220031 50 36 0.9 0.9 0.00 0.02 0.00 85 1322.9
20260507213031 50 270 3.5 3.5 0.00 0.02 0.00 85 1322.8
20260507210019 51 276 1.7 1.7 0.00 0.02 0.00 85 1322.8
20260507203019 51 330 1.7 1.7 0.00 0.02 0.00 86 1322.7
20260507200006 51 282 0.9 0.9 0.00 0.02 0.00 86 1322.4
20260507192954 52 228 1.7 1.7 0.00 0.02 0.00 86 1322.2
20260507185954 53 252 0.9 0.9 0.00 0.02 0.00 87 1321.9
20260507182941 53 122 1.7 1.7 0.00 0.02 0.00 87 1321.1
20260507175929 54 322 2.6 2.6 0.00 0.02 0.00 86 1320.9
20260507172929 55 266 3.5 3.5 0.00 0.02 0.00 85 1320.6
20260507165916 56 306 0.9 0.9 0.00 0.02 0.00 85 1320.5
20260507162904 57 222 0.9 0.9 0.00 0.02 0.00 84 1320.0
20260507155851 58 246 1.7 1.7 0.00 0.02 0.00 84 1319.8
20260507152851 59 260 0.9 0.9 0.02 0.02 0.00 84 1319.5
20260507145839 59 84 0.0 0.0 0.02 0.02 0.00 83 1319.4
20260507142826 61 234 0.9 0.9 0.00 0.00 0.00 72 1319.4
20260507135826 62 270 2.6 2.6 0.00 0.00 0.00 69 1319.4
20260507132814 62 287 1.7 1.7 0.00 0.00 0.00 69 1319.4
20260507125814 64 294 0.0 0.0 0.00 0.00 0.00 66 1319.3
20260507122813 62 145 0.9 0.9 0.00 0.00 0.00 72 1319.4
20260507115801 61 207 0.0 0.0 0.00 0.00 0.00 76 1319.6
20260507112748 59 276 1.7 1.7 0.00 0.00 0.00 78 1319.6
20260507105747 57 186 0.0 0.0 0.00 0.00 0.00 87 1319.6
20260507102735 57 291 0.9 0.9 0.00 0.00 0.00 84 1319.3
20260507095734 56 324 1.7 1.7 0.00 0.00 0.00 86 1319.0
20260507092722 56 276 2.6 2.6 0.00 0.00 0.00 87 1318.6
20260507085722 57 234 2.6 2.6 0.00 0.00 0.00 84 1318.1
20260507082721 56 290 1.7 1.7 0.00 0.00 0.00 85 1317.8
20260507075709 57 60 3.5 3.5 0.00 0.00 0.00 84 1317.2
20260507072657 56 234 1.7 1.7 0.00 0.00 0.00 90 1316.8
20260507065632 56 288 2.6 2.6 0.00 0.00 0.00 90 1316.6